COSMOS 2475 (743)

Last updated on Jan. 20, 2021, 6:22 a.m. UTC

1 37869U 11064C   21019.55302988  .00000021  00000-0  00000-0 0  9991
2 37869  64.5666 139.9050 0020596 256.9483  53.7809  2.13101799 71692
UTC
Height (km)
Latitude
Longitude
Inclination
Orbital Period
UTC large
Height (km)
Speed (km/s)
/
Latitude / Longitude
Inclination (degrees)
Orbital Period (minutes)
Azimuth
Elevation
Range (km)
Doppler Factor
iOS Compass Heading
iOS Angle

Next 30 passes for location: Hong Kong

Rise time Rise Azimuth (degrees) Set time Set Azimuth (degrees) Duration Max altitude (degrees)

No matching passes for this satellites